Location: Bennemühlen
(52.5740°N, 9.7135°E)
Time: 01:34:20
(UTC+00:00)

Cosmos 2360 Rocket - Pass Details

Date: 19 May 2025
Orbit: 834 x 842 km, 71.0° (Epoch: 23 June)

Event Time Altitude Azimuth Distance (km) Brightness Sun altitude
Rises 21:24:28 0° 329° (NNW) 3,395 7.4 -13.4°
Reaches altitude 10° 21:27:14 10° 340° (NNW) 2,457 6.1 -13.6°
Maximum altitude 21:32:09 30° 41° (NE) 1,465 3.7 -13.9°
Drops below altitude 10° 21:37:03 10° 102° (ESE) 2,448 4.3 -14.2°
Enters shadow 21:37:55 - 106° (ESE) 2,731 4.5 -14.3°
